{"data":{"norad_id":59117,"epoch":"2026-05-25T03:57:25.149888Z","epoch_age_seconds":56940,"freshness":"FRESH","line1":"1 59117U 24043V   26145.16487442  .00007895  00000+0  22619-3 0  9991","line2":"2 59117  97.5610 285.5458 0009155 323.1156  36.9457 15.36165406123716","mean_motion":15.36165406,"eccentricity":0.0009155,"inclination_deg":97.561,"raan_deg":285.5458,"arg_perigee_deg":323.1156,"mean_anomaly_deg":36.9457,"bstar":0.00022619,"rev_number":12371,"period_min":93.739905505983,"perigee_km":451.20311726356,"apogee_km":463.71909739808,"semimajor_km":6835.5981073308,"source":"CELESTRAK","updated_at":"2026-05-25T13:38:01.192447Z"}}